Date String (YYYY-MM-DD hh:mm:ss) UTC,Instrument flags,Ambient pressure (hPa),Sample flow (lpm),Bypass flow (lpm),Sample temperature (°C),Ambient temperature (°C),ASC tube jacket temperature (°C),LED temperature (°C),Box temperature (°C),Sample RH (%),Span deviation,Mass concentration (μg/m³),Mass concentration (μg/m³),Mass concentration (μg/m³)
DateTimeUTC,F1_M11,P_M11,Q1_M11,Q2_M11,T1_M11,T2_M11,T3_M11,T4_M11,T5_M11,U1_M11,ZSPAN_M11,X0_M11,X2_M11,X1_M11
2022-06-11 12:00:00,,0825.0,5.01,0.00,29.8,28.9,00.0,38.7,31.7,16.5,0000.0,0013.99,0005.27,0003.63
2022-06-11 12:01:00,,0825.0,5.00,0.00,29.8,28.9,00.0,38.7,31.7,16.5,0000.0,0013.93,0005.24,0003.62
2022-06-11 12:02:00,,0825.0,5.00,0.00,29.8,28.9,00.0,38.7,31.7,16.6,0000.0,0014.48,0005.27,0003.62
2022-06-11 12:03:00,,0825.0,5.00,0.00,29.9,28.9,00.0,38.7,31.7,16.5,0000.0,0014.43,0005.27,0003.62
2022-06-11 12:04:00,,0825.0,5.01,0.00,29.9,28.9,00.0,38.7,31.7,16.5,0000.0,0014.51,0005.31,0003.61
2022-06-11 12:05:00,,0825.0,5.00,0.00,29.9,28.9,00.0,38.7,31.7,16.6,0000.0,0014.53,0005.38,0003.60
2022-06-11 12:06:00,,0824.9,5.00,0.00,29.9,28.9,00.0,38.7,31.7,16.5,0000.0,0012.87,0005.33,0003.59
2022-06-11 12:07:00,,0825.0,5.01,0.00,29.9,28.9,00.0,38.7,31.7,16.4,0000.0,0012.54,0005.30,0003.60
2022-06-11 12:08:00,,0825.0,5.00,0.00,29.9,29.0,00.0,38.7,31.8,16.4,0000.0,0013.01,0005.27,0003.60
2022-06-11 12:09:00,,0825.0,5.00,0.00,29.9,29.0,00.0,38.8,31.8,16.4,0000.0,0013.41,0005.23,0003.61
2022-06-11 12:10:00,,0825.0,5.00,0.00,29.9,29.0,00.0,38.8,31.8,16.5,0000.0,0014.03,0005.25,0003.60
2022-06-11 12:11:00,,0825.0,5.01,0.00,29.9,29.0,00.0,38.8,31.8,16.5,0000.0,0013.95,0005.25,0003.60
2022-06-11 12:12:00,,0825.0,5.01,0.00,29.9,29.0,00.0,38.8,31.8,16.6,0000.0,0014.55,0005.31,0003.61
2022-06-11 12:13:00,,0825.0,5.00,0.00,29.9,29.0,00.0,38.8,31.8,16.6,0000.0,0014.62,0005.30,0003.62
2022-06-11 12:14:00,,0825.0,4.98,0.00,29.9,29.0,00.0,38.8,31.8,16.7,0000.0,0014.22,0005.28,0003.62
2022-06-11 12:15:00,,0825.0,5.00,0.00,29.9,29.0,00.0,38.8,31.8,16.5,0000.0,0014.17,0005.24,0003.60
2022-06-11 12:16:00,,0824.9,5.01,0.00,29.9,29.0,00.0,38.8,31.8,16.5,0000.0,0014.54,0005.17,0003.58
2022-06-11 12:17:00,,0824.9,5.00,0.00,30.0,29.0,00.0,38.8,31.9,16.4,0000.0,0014.56,0005.20,0003.56
2022-06-11 12:18:00,,0824.9,4.99,0.00,30.0,29.0,00.0,38.8,31.9,16.4,0000.0,0014.74,0005.25,0003.55
2022-06-11 12:19:00,,0824.9,5.00,0.00,30.0,29.1,00.0,38.8,31.9,16.4,0000.0,0014.14,0005.23,0003.54
2022-06-11 12:20:00,,0824.9,4.99,0.00,30.0,29.1,00.0,38.9,31.9,16.5,0000.0,0013.79,0005.22,0003.52
2022-06-11 12:21:00,,0824.9,5.01,0.00,30.0,29.1,00.0,38.9,31.9,16.5,0000.0,0013.17,0005.19,0003.51
2022-06-11 12:22:00,,0824.9,4.99,0.00,30.0,29.1,00.0,38.9,31.9,16.5,0000.0,0013.18,0005.15,0003.50
2022-06-11 12:23:00,,0824.9,4.99,0.00,30.0,29.1,00.0,38.9,31.9,16.5,0000.0,0012.86,0005.15,0003.48
2022-06-11 12:24:00,,0824.9,5.01,0.00,30.0,28.9,00.0,38.8,31.9,16.5,0000.0,0012.22,0005.12,0003.46
2022-06-11 12:25:00,,0824.9,5.01,0.00,30.0,27.9,00.0,38.8,31.6,16.5,0000.0,0012.47,0005.17,0003.44
2022-06-11 12:26:00,,0824.9,4.99,0.00,29.9,27.3,00.0,38.7,31.4,16.7,0000.0,0012.50,0005.16,0003.44
2022-06-11 12:27:00,,0824.9,5.00,0.00,29.8,27.2,00.0,38.7,31.3,16.8,0000.0,0011.94,0005.13,0003.44
2022-06-11 12:28:00,,0824.9,5.01,0.00,29.6,27.2,00.0,38.6,31.2,17.0,0000.0,0012.21,0005.16,0003.45
2022-06-11 12:29:00,,0824.9,4.99,0.00,29.6,27.3,00.0,38.6,31.2,17.1,0000.0,0012.56,0005.09,0003.43
2022-06-11 12:30:00,,0824.9,5.00,0.00,29.5,27.4,00.0,38.6,31.2,17.2,0000.0,0012.58,0005.07,0003.41
2022-06-11 12:31:00,,0824.9,5.01,0.00,29.5,27.6,00.0,38.6,31.2,17.3,0000.0,0012.52,0005.09,0003.41
2022-06-11 12:32:00,,0824.9,5.01,0.00,29.5,27.7,00.0,38.5,31.2,17.4,0000.0,0012.09,0005.08,0003.41
2022-06-11 12:33:00,,0825.0,5.02,0.00,29.5,27.8,00.0,38.5,31.3,17.5,0000.0,0012.00,0005.05,0003.40
2022-06-11 12:34:00,,0824.9,5.00,0.00,29.5,27.9,00.0,38.5,31.3,17.5,0000.0,0012.12,0005.02,0003.39
2022-06-11 12:35:00,,0824.9,4.99,0.00,29.5,28.0,00.0,38.5,31.3,17.5,0000.0,0013.08,0005.04,0003.40
2022-06-11 12:36:00,,0824.9,5.00,0.00,29.5,28.1,00.0,38.5,31.3,17.4,0000.0,0013.11,0005.02,0003.40
2022-06-11 12:37:00,,0824.9,5.00,0.00,29.5,28.2,00.0,38.5,31.3,17.4,0000.0,0013.24,0005.03,0003.40
2022-06-11 12:38:00,,0824.9,4.98,0.00,29.5,28.3,00.0,38.5,31.3,17.6,0000.0,0013.68,0005.03,0003.40
2022-06-11 12:39:00,,0824.9,4.99,0.00,29.5,28.3,00.0,38.4,31.4,18.1,0000.0,0014.68,0004.98,0003.40
2022-06-11 12:40:00,,0824.9,5.00,0.00,29.5,28.4,00.0,38.4,31.4,18.6,0000.0,0014.77,0004.91,0003.40
2022-06-11 12:41:00,,0824.9,5.01,0.00,29.5,28.4,00.0,38.4,31.4,18.7,0000.0,0015.06,0004.90,0003.41
2022-06-11 12:42:00,,0824.9,5.00,0.00,29.5,28.5,00.0,38.4,31.4,18.3,0000.0,0015.15,0004.95,0003.41
2022-06-11 12:43:00,,0825.0,4.99,0.00,29.5,28.5,00.0,38.4,31.4,18.3,0000.0,0015.37,0005.04,0003.41
2022-06-11 12:44:00,,0825.0,5.00,0.00,29.6,28.6,00.0,38.5,31.4,18.5,0000.0,0016.10,0005.10,0003.42
2022-06-11 12:45:00,,0825.1,5.00,0.00,29.6,28.6,00.0,38.5,31.4,20.0,0000.0,0017.07,0005.13,0003.43
2022-06-11 12:46:00,,0825.1,4.99,0.00,29.6,28.6,00.0,38.5,31.5,22.1,0000.0,0016.11,0005.09,0003.44
2022-06-11 12:47:00,,0825.1,5.01,0.00,29.6,28.7,00.0,38.5,31.5,21.0,0000.0,0015.89,0005.05,0003.44
2022-06-11 12:48:00,,0825.1,5.00,0.00,29.6,28.7,00.0,38.5,31.5,19.2,0000.0,0015.84,0005.03,0003.45
2022-06-11 12:49:00,,0825.2,5.00,0.00,29.7,28.8,00.0,38.5,31.6,17.8,0000.0,0016.10,0005.04,0003.45
2022-06-11 12:50:00,,0825.1,5.00,0.00,29.7,28.8,00.0,38.5,31.6,18.6,0000.0,0015.18,0005.05,0003.45
2022-06-11 12:51:00,,0825.1,5.00,0.00,29.7,28.8,00.0,38.5,31.6,19.1,0000.0,0014.44,0005.10,0003.46
2022-06-11 12:52:00,,0825.1,5.00,0.00,29.7,28.9,00.0,38.5,31.6,18.4,0000.0,0013.86,0005.21,0003.47
2022-06-11 12:53:00,,0825.1,5.00,0.00,29.7,28.9,00.0,38.6,31.6,18.6,0000.0,0013.76,0005.20,0003.47
2022-06-11 12:54:00,,0825.1,5.00,0.00,29.8,28.9,00.0,38.6,31.7,18.4,0000.0,0013.71,0005.12,0003.48
2022-06-11 12:55:00,,0825.1,5.00,0.00,29.8,28.9,00.0,38.6,31.7,18.6,0000.0,0013.77,0005.10,0003.47
2022-06-11 12:56:00,,0825.0,5.01,0.00,29.8,29.0,00.0,38.6,31.7,18.8,0000.0,0012.60,0005.13,0003.48
2022-06-11 12:57:00,,0825.1,5.00,0.00,29.8,29.0,00.0,38.6,31.7,18.4,0000.0,0012.66,0005.21,0003.48
2022-06-11 12:58:00,,0825.1,5.00,0.00,29.8,28.9,00.0,38.6,31.7,18.6,0000.0,0012.93,0005.24,0003.47
2022-06-11 12:59:00,,0825.1,5.00,0.00,29.8,28.1,00.0,38.6,31.5,18.4,0000.0,0013.51,0005.26,0003.47
